Flag for Germany Weather past 2 weeks in Reutlingen, Baden-Württemberg, Germany

48 °F


Feels Like: 46 °F
Forecast: 34 / 51 °F
Wind: 6 mph from Northwest

Location: Stuttgart-Echterdingen

Current Time: Oct 13, 2015 at 9:05:35 PM

Latest Report: Oct 13, 2015 at 8:20 PM

Visibility: 6 mi

Pressure: 29.95 "Hg

Humidity: 76%

Dew point: 41 °F

Location of ReutlingenLocation

Historic Weather in Reutlingen — Graph


Reutlingen temperature yesterday

Maximum temperature yesterday: 55 °F (at 2:50 PM)
Minimum temperature yesterday: 37 °F (at 6:20 AM)
Average temperature yesterday: 45 °F

Past Weeks' High & Low Weather Summary

High72 °F (Oct 3, 3:50 PM)100% (Oct 4, 8:20 PM)30.51 "Hg (Oct 4, 8:20 PM)
Low37 °F (Oct 12, 6:20 AM)32% (Sep 30, 3:50 PM)29.74 "Hg (Oct 6, 9:50 AM)
Average53 °F75%30.08 "Hg
* Reported Sep 28 7:20 PM — Oct 13 7:50 PM, Reutlingen, Weather by CustomWeather, © 2015

Note: Actual official high and low records may vary slightly from our data, if they occured in-between our weather recording intervals... More about our weather records


Reutlingen weather history for previous 24 hours

Time TempWeatherWind HumidityBarometerVisibility
7:50 PM
Tue, Oct 13
48 °FOvercast.6 mph82%29.95 "Hg6 mi
7:20 PM48 °FOvercast.7 mph82%29.95 "Hg6 mi
6:50 PM48 °FOvercast.8 mph82%29.92 "Hg6 mi
6:20 PM48 °FMore clouds than sun.7 mph82%29.92 "Hg6 mi
5:50 PM50 °FMore clouds than sun.7 mph76%29.92 "Hg6 mi
5:20 PM50 °FMore clouds than sun.6 mph76%29.92 "Hg6 mi
4:50 PM50 °FBroken clouds.6 mph76%29.92 "HgN/A
4:20 PM50 °FPartly sunny.6 mph76%29.92 "HgN/A
3:50 PM50 °FPartly sunny.7 mph76%29.92 "HgN/A
3:20 PM50 °FPartly sunny.6 mph76%29.92 "HgN/A
2:50 PM50 °FPartly sunny.8 mph71%29.92 "HgN/A
2:20 PM50 °FPartly sunny.7 mph76%29.92 "HgN/A
1:50 PM52 °FPartly sunny.5 mph77%29.92 "Hg6 mi
1:20 PM52 °FPartly sunny.3 mph72%29.92 "Hg6 mi
12:50 PM50 °FBroken clouds.3 mph76%29.92 "Hg6 mi
12:20 PM48 °FPartly sunny.3 mph82%29.92 "Hg4 mi
11:50 AM48 °FPartly sunny.2 mph82%29.92 "Hg4 mi
11:20 AM45 °FPartly sunny.1 mph93%29.92 "Hg4 mi
10:50 AM43 °FPartly sunny.1 mph93%29.92 "Hg4 mi
10:20 AM43 °FFog.1 mph93%29.92 "Hg3 mi
9:50 AM43 °FFog.2 mph93%29.92 "Hg2 mi
9:20 AM41 °FPartly sunny.5 mph93%29.92 "Hg4 mi
8:50 AM41 °FPartly sunny.2 mph93%29.92 "Hg5 mi
8:20 AM39 °FPassing clouds.1 mph93%29.92 "Hg5 mi
7:50 AM39 °FPassing clouds.1 mph93%29.92 "HgN/A
7:20 AM39 °FPassing clouds.2 mph93%29.92 "HgN/A
6:50 AM37 °FPassing clouds.5 mph100%29.92 "Hg6 mi
6:20 AM37 °FClear.2 mph100%29.92 "Hg6 mi
5:50 AM39 °FClear.1 mph93%29.92 "Hg10 mi
5:20 AM39 °FClear.2 mph93%29.92 "Hg10 mi
4:50 AM39 °FClear.1 mph93%29.92 "Hg10 mi
4:20 AM41 °FClear.1 mph87%29.92 "Hg10 mi
3:50 AM41 °FClear.2 mph93%29.95 "Hg10 mi
3:20 AM43 °FClear.1 mph87%29.95 "Hg10 mi
2:50 AM43 °FClear.1 mph87%29.95 "Hg10 mi
2:20 AM43 °FClear.2 mph87%29.95 "Hg10 mi
1:50 AM43 °FClear.No wind87%29.95 "Hg10 mi
1:20 AM43 °FClear.2 mph87%29.95 "Hg10 mi
12:50 AM43 °FClear.1 mph87%29.95 "Hg10 mi
12:20 AM43 °FClear.1 mph87%29.95 "Hg10 mi
11:50 PM
Mon, Oct 12
43 °FClear.1 mph87%29.98 "Hg10 mi
11:20 PM45 °FClear.2 mph81%29.98 "Hg10 mi
10:50 PM45 °FClear.1 mph81%29.98 "Hg10 mi
10:20 PM45 °FClear.2 mph81%29.98 "Hg10 mi
9:50 PM46 °FClear.1 mph76%29.98 "Hg10 mi
9:20 PM45 °FClear.3 mph81%29.98 "Hg10 mi
Weather by CustomWeather, © 2015

See weather overviewHow to use our weather pages